This demonstration page uses our WeatherBlox Daily Observations layout. Learn more.

Left ArrowRight Arrow

44.8408, -93.29828

Hourly Observations for February 4, 2019

Temp ( °F °C ) Dew Point ( °F °C ) Humidity (%) Winds ( mph kmh ) Pressure ( in mb ) Visibility ( mi km ) Precip ( " mm )
12:19 am 00:19 Cloudy with Light Freezing Drizzle 33 0.6 33 0.6 100 100 NNE 7 11 29.65 1004 3 4 0.03 0.76
12:29 am 00:29 Cloudy with Light Freezing Drizzle 33 0.6 33 0.6 100 100 NNE 7 11 29.64 1004 3 5 0.04 1.02
12:53 am 00:53 Cloudy with Light Freezing Drizzle 33 0.6 33 0.6 100 100 N 9 15 29.63 1003 6 10 0.04 1.02
1:01 am 01:01 Cloudy with Light Freezing Drizzle 33 0.6 33 0.6 100 100 N 7 11 29.64 1004 3 5 0.00 0.03
1:53 am 01:53 Cloudy with Light Freezing Drizzle 32 0 32 0 100 100 NNW 8 13 29.62 1003 3 5 0.02 0.51
2:23 am 02:23 Cloudy with Light Freezing Drizzle 32 0 32 0 100 100 NNW 10 17 29.65 1004 6 10 0.00 0.03
2:43 am 02:43 Cloudy with Light Freezing Drizzle 32 0 32 0 100 100 N 12 19 29.63 1004 7 11 0.00 0.03
2:53 am 02:53 Cloudy with Light Freezing Drizzle 31 -0.6 31 -0.6 100 100 N 9 15 29.61 1003 7 11 0.00 0.03
3:10 am 03:10 Cloudy with Light Freezing Drizzle 31 -0.6 31 -0.6 100 100 N 10 17 29.63 1003 9 14 0.00 0.03
3:18 am 03:18 Cloudy 31 -0.6 31 -0.6 100 100 N 10 17 29.64 1004 10 16 0.00 0.03
3:37 am 03:37 Cloudy 31 -0.6 31 -0.6 100 100 N 8 13 29.64 1004 10 16 0.00 0.03
3:53 am 03:53 Cloudy 31 -0.6 31 -0.6 100 100 N 10 17 29.61 1003 10 16 0.00 0.03
4:49 am 04:49 Cloudy with Light Freezing Rain 30 -1 30 -1 100 100 NW 16 26 29.66 1004 3 4 0.00 0.03
4:53 am 04:53 Cloudy with Light Freezing Rain 30 -1.1 30 -1.1 100 100 NW 15 24 29.64 1004 2 3 0.00 0.03
4:59 am 04:59 Cloudy with Mist and Fog 30 -1.1 30 -1.1 100 100 NW 13 20 29.67 1005 2 3 0.00 0.03
5:06 am 05:06 Cloudy with Light Freezing Rain 30 -1.1 30 -1.1 100 100 NW 16 26 29.67 1005 2 3 0.00 0.03
5:20 am 05:20 Cloudy with Light Freezing Drizzle 30 -1.1 30 -1.1 100 100 NNW 10 17 29.67 1005 3 4 0.00 0.03
5:25 am 05:25 Cloudy with Light Freezing Drizzle 30 -1.1 30 -1.1 100 100 NNW 18 30 29.67 1005 3 5 0.00 0.03
5:53 am 05:53 Cloudy with Light Freezing Drizzle 29 -1.7 29 -1.7 100 100 NW 14 22 29.67 1005 7 11 0.00 0.03
6:41 am 06:41 Cloudy 29 -1.7 28 -2.2 96 96 NW 14 22 29.72 1006 7 11 0.00 0.03
6:49 am 06:49 Cloudy with Light Freezing Drizzle 28 -2 28 -2 100 100 NW 12 19 29.72 1007 5 8 0.00 0.03
6:53 am 06:53 Cloudy with Light Freezing Drizzle 29 -1.7 29 -1.7 100 100 NW 13 20 29.70 1006 3 5 0.00 0.03
7:37 am 07:37 Cloudy with Light Freezing Drizzle 28 -2.2 28 -2.2 100 100 NW 20 31 29.76 1008 5 8 0.00 0.03
7:51 am 07:51 Cloudy with Light Freezing Drizzle 27 -3 27 -3 100 100 NW 16 26 29.78 1008 2 3 0.00 0.03
7:53 am 07:53 Cloudy with Light Freezing Drizzle 27 -2.8 27 -2.8 100 100 NW 17 28 29.75 1007 2 3 0.00 0.03
8:08 am 08:08 Cloudy with Light Freezing Drizzle 26 -3.3 26 -3.3 100 100 WNW 16 26 29.80 1009 2 3 0.00 0.03
8:20 am 08:20 Cloudy with Light Freezing Rain 25 -3.9 24 -4.4 96 96 NW 17 28 29.80 1009 2 3 0.00 0.03
8:35 am 08:35 Cloudy with Light Freezing Drizzle 23 -5 23 -5 100 100 WNW 21 33 29.81 1010 2 3 0.00 0.03
8:53 am 08:53 Cloudy with Light Freezing Drizzle 22 -5.6 21 -6.1 96 96 WNW 14 22 29.79 1009 7 11 0.00 0.03
9:05 am 09:05 Cloudy 21 -6.1 20 -6.7 96 96 W 17 28 29.84 1010 8 13 0.00 0.03
9:11 am 09:11 Cloudy 21 -6.1 20 -6.7 96 96 WNW 16 26 29.84 1010 8 13 0.00 0.03
9:53 am 09:53 Cloudy 19 -7.2 18 -7.8 96 96 W 15 24 29.83 1010 8 13 0.00 0.03
10:23 am 10:23 Cloudy 16 -8.9 14 -10 92 92 W 18 30 29.89 1012 10 16 0.00 0.00
10:53 am 10:53 Cloudy with Light Snow 14 -10 13 -10.6 95 95 W 17 28 29.88 1012 5 8 0.00 0.03
11:03 am 11:03 Cloudy with Light Snow 13 -10.6 10 -12.2 88 88 W 18 30 29.94 1014 4 6 0.00 0.03
11:53 am 11:53 Cloudy with Light Snow 11 -11.7 9 -12.8 92 92 W 13 20 29.91 1013 5 8 0.00 0.03
12:53 pm 12:53 Cloudy with Light Snow 11 -11.7 8 -13.3 88 88 W 13 20 29.92 1013 9 14 0.00 0.03
1:05 pm 13:05 Cloudy with Light Snow 11 -11.7 8 -13.3 88 88 W 15 24 29.98 1015 9 14 0.00 0.03
1:53 pm 13:53 Cloudy with Light Snow 11 -11.7 7 -13.9 84 84 WNW 18 30 29.94 1014 9 14 0.00 0.03
2:07 pm 14:07 Cloudy with Light Snow 11 -11.7 8 -13.3 88 88 WNW 16 26 30.00 1016 9 14 0.00 0.03
2:53 pm 14:53 Cloudy with Light Snow 12 -11.1 8 -13.3 84 84 WNW 15 24 29.97 1015 9 14 0.00 0.03
3:53 pm 15:53 Mostly Cloudy 11 -11.7 6 -14.4 81 81 NW 18 30 29.99 1016 10 16 0.00 0.03
4:53 pm 16:53 Mostly Cloudy 9 -12.8 4 -15.6 80 80 W 16 26 30.03 1017 10 16 0.00 0.00
5:05 pm 17:05 Partly Cloudy 9 -12.8 4 -15.6 80 80 WNW 13 20 30.08 1019 10 16 0.00 0.00
5:53 pm 17:53 Partly Cloudy 7 -13.9 3 -16.1 84 84 NW 16 26 30.05 1018 10 16 0.00 0.00
6:53 pm 18:53 Mostly Clear 6 -14.4 1 -17.2 79 79 WNW 14 22 30.11 1020 10 16 0.00 0.00
7:53 pm 19:53 Mostly Clear 5 -15 0 -17.8 79 79 WNW 13 20 30.15 1021 10 16 0.00 0.00
8:53 pm 20:53 Mostly Clear 3 -16.1 -2 -18.9 79 79 WNW 17 28 30.16 1022 10 16 0.00 0.00
9:53 pm 21:53 Mostly Clear 2 -16.7 -3 -19.4 80 80 NW 9 15 30.18 1022 10 16 0.00 0.00
10:53 pm 22:53 Clear 2 -16.7 -2 -18.9 83 83 NW 12 19 30.18 1022 10 16 0.00 0.00
11:53 pm 23:53 Mostly Clear 2 -16.7 -2 -18.9 83 83 NNW 10 17 30.20 1023 10 16 0.00 0.00

Powered by AerisWeather